Weather Roundup
Issued by NWS Corpus Christi, TX

Home | Current Version | Previous Version | Text Only | Print | Product List | Glossary On
Versions: 1 2 3 4 5 6 7 8 9 10 11 12 13 14 15 16 17 18 19 20 21 22 23 24 25 26 27 28 29 30 31 32 33 34 35 36 37 38 39 40 41 42 43 44 45 46 47 48 49 50
000
ASUS44 KCRP 272210
HRRCRP

SOUTH TEXAS REGIONAL WEATHER ROUNDUP
NATIONAL WEATHER SERVICE CORPUS CHRISTI TX
500 PM CDT SAT AUG 27 2016


TXZ229>244-272300-
...CORPUS CHRISTI AREA OBSERVATIONS...

CITY           SKY/WX    TMP DP  RH WIND       PRES   REMARKS
CORPUS CHRISTI MOSUNNY   92  75  57 E13G21    29.87F HX 103
NAS CORPUS CHR NOT AVBL
ROCKPORT       SUNNY     90  74  59 SE10      29.87F HX  99
ALICE          SUNNY     92  69  47 NE8       29.85F HX  97
FALFURRIAS     SUNNY     94  71  46 NE12      29.85S HX 100
$$

...VICTORIA AREA OBSERVATIONS...

CITY           SKY/WX    TMP DP  RH WIND       PRES   REMARKS
VICTORIA       MOSUNNY   90  72  55 NE8       29.88F HX  97
BEEVILLE       PTSUNNY   91  74  57 NE9       29.88F HX 101
PLEASANTON     SUNNY     91  68  45 CALM      29.89F HX  95
SAN ANTONIO    MOSUNNY   90  70  51 E9        29.91F HX  95
$$

...LAREDO AREA OBSERVATIONS...

CITY           SKY/WX    TMP DP  RH WIND       PRES   REMARKS
LAREDO         PTSUNNY   97  67  37 SE12      29.86F HX 101
COTULLA        MOSUNNY   94  64  37 E8        29.88F HX  95
DEL RIO        MOSUNNY   92  68  45 E10       29.89F HX  96
MCALLEN        MOSUNNY   99  67  35 VRB6      29.83F HX 103
HEBBRONVILLE   MOSUNNY   94  65  37 E9        29.88F HX  97
$$

...OTHER TEXAS OBSERVATIONS...

CITY           SKY/WX    TMP DP  RH WIND       PRES   REMARKS
BROWNSVILLE    SUNNY     92  73  53 E15       29.86F HX 100
HOUSTON        PTSUNNY   88  72  58 NE9       29.91S HX  94
COL. STATION   MOSUNNY   90  71  53 E5        29.91F HX  96
AUSTIN         MOSUNNY   91  70  49 VRB5      29.90F HX  96
WACO           MOSUNNY   90  70  51 NE5       29.92F HX  95
FORT WORTH     MOSUNNY   91  69  48 SE9       29.93F HX  96
WICHITA FALLS  PTSUNNY   91  66  43 SW8       29.94R THUNDER HX  93
LUBBOCK        MOSUNNY   88  58  36 S10G20    30.01F
EL PASO        MOSUNNY   88  54  31 E3        29.99F
$$

...MARINE OBSERVATIONS...

STATION/POSITION TIME  SKY/WX   TEMP    WIND        PRES    VSBY  WAVE   SWELL
                                AIR SEA DIR/SP/G                  HT/PER HT/PER
                 (UTC)          (F)     (DEG/KT/KT) (MB)    (MI)  (FT/S) (FT/S)
PORT ARANSAS     2200            84 87   90/ 11/ 12 1012.1F
BUOY 90 E PORT A 2150            84 86   20/ 14/ 16 1011.8F         3/ 7   2/ 7
BUOY 45 SE BAFFI 2150            85 87   50/ 10/ 12 1011.4F         2/ 7   2/ 7
BUOY 200 E PT IS 2150            85 88  350/  6/  8 1010.3F         2/ 7   2/ 7
BUOY 15 E GALVES 2150            82 86   40/ 17/ 19 1011.8F         3/ 5
$$



USA.gov is the U.S. government's official web portal to all federal, state and local government web resources and services.